Regional Weather Roundup
Issued by NWS

Home | Current Version | Previous Version | Text Only | Print | Product List | Glossary On
Versions: 1 2 3 4 5 6 7 8 9 10 11 12 13 14 15 16 17 18 19 20 21 22 23 24 25 26 27 28 29 30 31 32 33 34 35 36 37 38 39 40 41 42 43 44 45 46 47 48 49 50
000
ASUS43 KMPX 280701
RWRMN
WEATHER ROUNDUP FOR MINNESOTA
NATIONAL WEATHER SERVICE TWIN CITIES/CHANHASSEN MN
200 AM CDT THU AUG 28 2014


NOTE: "FAIR" INDICATES FEW OR NO CLOUDS BELOW 12,000 FEET WITH NO
SIGNIFICANT WEATHER AND/OR OBSTRUCTIONS TO VISIBILITY. N/A MEANS
CURRENT SKY AND/OR WEATHER CONDITIONS ARE NOT AVAILABLE.

MNZ060>063-068>070-280800-
   Twin Cities Metro

CITY           SKY/WX    TMP DP  RH WIND       PRES   REMARKS
TWIN CITIES    PTCLDY    64  58  80 SE7       30.13S
ST PAUL        CLEAR     63  57  81 SE8       30.14S
CRYSTAL        CLEAR     64  56  75 E5        30.12S
BLAINE         MOCLDY    64  57  77 E7        30.13F
LAKEVILLE      CLEAR     55  55 100 E3        30.13F
EDEN PRAIRIE   CLEAR     64  59  83 E6        30.11F
SOUTH ST PAUL  CLEAR     64  56  76 E3        30.13F
LAKE ELMO      FAIR      61  55  82 CALM      30.15S
$$
MNZ001>005-007-008-013>017-022>024-027-028-280800-
   Northwest Minnesota

CITY           SKY/WX    TMP DP  RH WIND       PRES   REMARKS
BEMIDJI        CLEAR     52  52  98 CALM      30.10F FOG
HALLOCK        CLEAR     55  54  94 SE8       30.02F
ROSEAU         CLEAR     54  48  82 SE6       30.06F
WARROAD        CLEAR     54  50  87 CALM      30.07F
THIEF RVR FALL CLEAR     55  54  94 SE6       30.06F
CROOKSTON      CLEAR     57  55  94 SE8       30.05F
FOSSTON        CLEAR     57  54  88 SE6       30.08F
DETROIT LAKES  CLEAR     61  59  94 SE9       30.09F
MOORHEAD       MOCLDY    64  64 100 SE9       30.05F
PARK RAPIDS    CLEAR     57  56  96 SE6       30.10F
MAHNOMEN       FAIR      58  56  94 SE6       30.08F
$$
MNZ006-009>011-018-025>026-280800-
   North Central Minnesota

CITY           SKY/WX    TMP DP  RH WIND       PRES   REMARKS
BAUDETTE       CLEAR     52  50  93 SE3       30.08F
FLAG ISLAND    CLEAR     66  57  72 S13       30.05F
INTL FALLS     CLEAR     49  48  97 SE5       30.10F
WASKISH        CLEAR     54  52  94 CALM      30.09F
BIG FORK       CLEAR     46  46 100 CALM      30.12F
LONGVILLE      CLEAR     48  48 100 CALM      30.11F FOG
GRAND RAPIDS   CLEAR     50  46  87 CALM      30.13F
CRANE LAKE     CLEAR     43  43 100 CALM      30.14F
ORR            CLEAR     46  45  93 CALM      30.11S
COOK           CLEAR     45  45 100 CALM      30.13F
WALKER         FAIR      56  54  92 CALM      30.11F
$$
MNZ012-019>021-037-280800-
   Northeast Minnesota

CITY           SKY/WX    TMP DP  RH WIND       PRES   REMARKS
DULUTH         MOCLDY    57  53  86 CALM      30.14F
ELY            CLEAR     46  45  93 CALM      30.14S
HIBBING        FOG       44  42  93 CALM      30.14S VSB 3/4
EVELETH        PTCLDY    43  43 100 CALM      30.15S
DULUTH HARBOR  CLOUDY    61  55  82 CALM      30.14F
TWO HARBORS    MOCLDY    50  46  87 CALM      30.13F
SILVER BAY     CLEAR     46  46 100 CALM      30.14S
GRAND MARAIS     N/A     56  51  84 CALM      30.15S
G MARAIS ARPRT CLOUDY    48  45  87 CALM      30.18R
$$
MNZ029>031-032-039>041-046>048-054>057-064-280800-
   West Central Minnesota

CITY           SKY/WX    TMP DP  RH WIND       PRES   REMARKS
FERGUS FALLS   MOCLDY    64  57  77 SE8       30.07S
WHEATON        PTCLDY    57  57 100 SE6       30.07F
MORRIS         MOCLDY    64  61  88 SE8       30.07S
ALEXANDRIA     CLOUDY    62  57  83 SE12      30.11F
ELBOW LAKE     CLOUDY    63  59  87 SE7       30.07F
WADENA         CLEAR     57  55  94 SE3       30.10S
GLENWOOD       PTCLDY    63  59  88 SE9       30.11S
APPLETON       CLEAR     63  57  82 E3        30.06F
BENSON         PTCLDY    63  59  88 S8        30.08F
ORTONVILLE     CLOUDY    64  57  77 SE7       30.06F
MADISON        CLOUDY    66  61  82 S10       30.07F
WILLMAR        MOCLDY    63  59  88 E5        30.11F
$$
MNZ033>034-036-042>043-049>051-058-059-280800-
   Central Minnesota

CITY           SKY/WX    TMP DP  RH WIND       PRES   REMARKS
ST CLOUD       CLEAR     61  56  83 E3        30.12F
SAUK CENTRE    CLOUDY    60  57  91 SE6       30.11F
PAYNESVILLE    CLOUDY    61  56  83 E9        30.11F
AITKIN         HAZE      52  46  82 CALM      30.12S VSB 1/4
PINE RIVER     PTCLDY    54  54 100 CALM      30.14F
BRAINERD       CLOUDY    58  57  97 SE3       30.12F
STAPLES        CLEAR     57  55  94 SE5       30.11F
LONG PRAIRIE   FAIR      59  55  88 E6        30.12F
LITTLE FALLS   MOCLDY    59  54  82 SE5       30.12F
LITCHFIELD     PTCLDY    63  61  94 E3        30.12F
BUFFALO        CLEAR     62  56  79 E3        30.13F
MAPLE LAKE     CLEAR     64  59  83 E3        30.13F
$$
MNZ037-044-045-052-053-280800-
   East Central Minnesota

CITY           SKY/WX    TMP DP  RH WIND       PRES   REMARKS
MORA           CLOUDY    55  54  94 CALM      30.15F
CAMBRIDGE      PTCLDY    64  54  68 CALM      30.12S
RUSH CITY      CLOUDY    59  56  91 CALM      30.14S
MOOSE LAKE     FOG       48  46  93 CALM      30.12F VSB 1
HINCKLEY       CLOUDY    54  54 100 SW5       30.14S
CLOQUET        CLEAR     52  48  87 CALM      30.14F
MCGREGOR       CLEAR     50  50 100 CALM      30.14F
$$
MNZ071>073-080-081-089-090-097-098-280800-
   Southwest Minnesota

CITY           SKY/WX    TMP DP  RH WIND       PRES   REMARKS
MONTEVIDEO     PTCLDY    63  61  94 S6        30.09F
GRANITE FALLS  PTCLDY    63  58  85 SE7       30.09F
CANBY          CLOUDY    64  61  91 SE5       30.08S
MARSHALL       CLOUDY    64  57  77 SE8       30.07F
REDWOOD FALLS  PTCLDY    62  58  86 SE7       30.09F
OLIVIA         PTCLDY    63  55  77 SE6       30.09F
PIPESTONE      CLOUDY    66  63  88 SE7       30.07F
WINDOM         MOCLDY    64  59  82 SE6       30.09F
WORTHINGTON    CLOUDY    64  63  94 E6        30.10F
JACKSON        MOCLDY    63  59  88 E7        30.10F
TRACY          CLOUDY    65  61  86 SE5       30.09F
SLAYTON        CLOUDY    64  61  91 CALM      30.10F
$$
MNZ065>067-074>077-082>085-091>093-280800-
   South Central Minnesota

CITY           SKY/WX    TMP DP  RH WIND       PRES   REMARKS
MANKATO        CLEAR     63  55  77 E7        30.11F
NEW ULM        PTCLDY    63  61  94 SE6       30.10F
ST JAMES       PTCLDY    63  59  88 E5        30.10F
FAIRMONT       MOCLDY    61  57  88 SE6       30.10F
GLENCOE        PTCLDY    61  56  83 E3        30.11F
FARIBAULT      PTCLDY    63  55  77 CALM      30.13F
OWATONNA       PTCLDY    61  57  88 E3        30.13F
WASECA         CLEAR     59  54  82 E5        30.13F
ALBERT LEA     PTCLDY    63  57  82 SE5       30.12F
$$
MNZ078>079-086>088-094>096-280800-
   Southeast Minnesota

CITY           SKY/WX    TMP DP  RH WIND       PRES   REMARKS
ROCHESTER      PTCLDY    58  56  93 S6        30.15F
RED WING       CLEAR     61  55  82 CALM      30.13S
STANTON        PTCLDY    58  56  92 CALM      30.12F
DODGE CENTER   PTCLDY    57  57 100 CALM      30.14F
WINONA         MOCLDY    59  59 100 CALM      30.15S
AUSTIN         CLEAR     57  55  94 CALM      30.13F
PRESTON        PTCLDY    59  59 100 CALM      30.16S
$$
ABBREVIATIONS USED IN REMARKS
   TC - TEMPERATURES IN CELSIUS
  WCI - WIND CHILL INDEX
   HX - HEAT INDEX
  VSB - VISIBILITY
$$



USA.gov is the U.S. government's official web portal to all federal, state and local government web resources and services.